University AP, Davis, CA, CA

12:50 AM PST on December 11, 2019 (GMT -0800)
University AP, Davis, CA

Weather History for KEDU - October, 2019

Change the Weather History Date:

Tuesday, October 29, 2019

  Actual Average (KSMF) Record (KSMF)
Temperature  
Mean Temperature 52 °F -  
Max Temperature 66 °F 70 °F 82 °F (1965)
Min Temperature 39 °F 48 °F 36 °F (1971)
Degree Days  
Heating Degree Days 12    
Growing Degree Days 2 (Base 50)    
Moisture  
Dew Point 17 °F    
Average Humidity 29    
Maximum Humidity 61    
Minimum Humidity 11    
Precipitation  
Precipitation 0.00 in - - ()
Sea Level Pressure  
Sea Level Pressure 29.97 in    
Wind  
Wind Speed 7 mph ()    
Max Wind Speed 21 mph    
Max Gust Speed 32 mph    
Visibility 9.9 miles    
Events      
Averages and records for this station are not official NWS values.
T = Trace of Precipitation, MM = Missing Value Source: Averaged Metar Reports

Daily Weather History Graph

Daily Weather History Graph

Search for Another Location

Airport or City:

Astronomy

Oct. 29, 2019 Rise Set
Actual Time 7:30 AM PDT 6:10 PM PDT
Civil Twilight 7:03 AM PDT 6:38 PM PDT
Nautical Twilight 6:31 AM PDT 7:09 PM PDT
Astronomical Twilight 6:01 AM PDT 7:40 PM PDT
Moon 9:09 AM PDT (10/29) 7:39 PM PDT (10/29)
Length of Visible Light 11h 35m
Length of Day
10h 40m
Waxing Crescent, 4% of the Moon is Illuminated
Oct 29
Waxing Crescent
Nov 4
First Quarter
Nov 12
Full
Nov 19
Last Quarter
Nov 26
New

Hourly Weather History & Observations

Time (PDT) Temp. Windchill Dew Point Humidity Pressure Visibility Wind Dir Wind Speed Gust Speed Precip Events Conditions
12:10 AM 44.6 °F - 24.8 °F 46% 29.98 in 10.0 mi Calm Calm - N/A   Clear
12:30 AM 44.6 °F - 24.8 °F 46% 29.98 in 10.0 mi Calm Calm - N/A   Clear
12:55 AM 44.6 °F - 26.6 °F 49% 29.98 in 10.0 mi Calm Calm - N/A   Clear
1:15 AM 42.8 °F - 26.6 °F 53% 29.98 in 10.0 mi Calm Calm - N/A   Clear
1:35 AM 42.8 °F - 26.6 °F 53% 29.98 in 10.0 mi Calm Calm - N/A   Clear
1:55 AM 39.2 °F - 24.8 °F 56% 29.98 in 10.0 mi Calm Calm - N/A   Clear
2:15 AM 41.0 °F - 26.6 °F 57% 29.98 in 10.0 mi Calm Calm - N/A   Clear
2:35 AM 39.2 °F - 23.0 °F 52% 29.97 in 10.0 mi Calm Calm - N/A   Clear
2:55 AM 39.2 °F - 23.0 °F 52% 29.97 in 10.0 mi Calm Calm - N/A   Clear
3:15 AM 39.2 °F - 23.0 °F 52% 29.96 in 10.0 mi Calm Calm - N/A   Clear
3:35 AM 39.2 °F 37.0 °F 24.8 °F 56% 29.96 in 10.0 mi NNW 3.5 mph - N/A   Clear
3:55 AM 41.0 °F 36.4 °F 24.8 °F 53% 29.96 in 10.0 mi North 6.9 mph - N/A   Clear
4:10 AM 41.0 °F 39.0 °F 24.8 °F 53% 29.96 in 10.0 mi North 3.5 mph - N/A   Clear
4:35 AM 41.0 °F 37.1 °F 26.6 °F 57% 29.95 in 10.0 mi NNE 5.8 mph - N/A   Clear
4:55 AM 41.0 °F 39.0 °F 26.6 °F 57% 29.96 in 10.0 mi North 3.5 mph - N/A   Clear
5:15 AM 41.0 °F 38.0 °F 26.6 °F 57% 29.97 in 10.0 mi NNW 4.6 mph - N/A   Clear
5:35 AM 39.2 °F 37.0 °F 26.6 °F 61% 29.96 in 10.0 mi NNW 3.5 mph - N/A   Clear
5:55 AM 39.2 °F 37.0 °F 26.6 °F 61% 29.97 in 10.0 mi NNW 3.5 mph - N/A   Clear
6:15 AM 41.0 °F 37.1 °F 24.8 °F 53% 29.97 in 10.0 mi NNW 5.8 mph - N/A   Clear
6:35 AM 41.0 °F 35.8 °F 24.8 °F 53% 29.97 in 10.0 mi North 8.1 mph - N/A   Clear
6:55 AM 41.0 °F 35.8 °F 24.8 °F 53% 29.98 in 10.0 mi North 8.1 mph - N/A   Clear
7:15 AM 42.8 °F 39.3 °F 24.8 °F 49% 29.98 in 10.0 mi North 5.8 mph - N/A   Clear
7:35 AM 42.8 °F 39.3 °F 24.8 °F 49% 29.99 in 10.0 mi North 5.8 mph - N/A   Clear
7:55 AM 42.8 °F 39.3 °F 24.8 °F 49% 29.99 in 10.0 mi North 5.8 mph - N/A   Clear
8:15 AM 44.6 °F 40.7 °F 24.8 °F 46% 29.99 in 10.0 mi North 6.9 mph - N/A   Clear
8:35 AM 46.4 °F 41.9 °F 23.0 °F 40% 29.99 in 10.0 mi North 9.2 mph - N/A   Clear
8:55 AM 48.2 °F - 21.2 °F 34% 30.00 in 10.0 mi North 8.1 mph - N/A   Clear
9:15 AM 53.6 °F - 17.6 °F 24% 30.00 in 10.0 mi North 12.7 mph - N/A   Clear
9:35 AM 55.4 °F - 17.6 °F 23% 30.01 in 10.0 mi North 13.8 mph - N/A   Clear
9:55 AM 57.2 °F - 17.6 °F 21% 30.01 in 8.0 mi North 12.7 mph 20.7 mph N/A   Clear
10:15 AM 57.2 °F - 17.6 °F 21% 30.01 in 9.0 mi North 19.6 mph 26.5 mph N/A   Clear
10:35 AM 59.0 °F - 17.6 °F 20% 30.01 in 10.0 mi North 19.6 mph 27.6 mph N/A   Clear
10:55 AM 59.0 °F - 17.6 °F 20% 30.00 in 9.0 mi North 19.6 mph 32.2 mph N/A   Clear
11:10 AM 60.8 °F - 19.4 °F 20% 29.99 in 10.0 mi North 19.6 mph 26.5 mph N/A   Clear
11:35 AM 62.6 °F - 19.4 °F 19% 30.00 in 10.0 mi North 17.3 mph 26.5 mph N/A   Clear
11:55 AM 64.4 °F - 19.4 °F 18% 30.00 in 9.0 mi NNW 16.1 mph 25.3 mph N/A   Clear
12:10 PM 64.4 °F - 19.4 °F 18% 30.00 in 10.0 mi North 16.1 mph 26.5 mph N/A   Clear
12:35 PM 64.4 °F - 17.6 °F 16% 29.99 in 10.0 mi NNW 19.6 mph 28.8 mph N/A   Clear
12:55 PM 66.2 °F - 17.6 °F 15% 29.99 in 10.0 mi North 17.3 mph 26.5 mph N/A   Clear
1:15 PM 66.2 °F - 17.6 °F 15% 29.97 in 10.0 mi North 17.3 mph 26.5 mph N/A   Clear
1:35 PM 66.2 °F - 17.6 °F 15% 29.97 in 9.0 mi NNW 15.0 mph 25.3 mph N/A   Clear
1:50 PM 66.2 °F - 17.6 °F 15% 29.96 in 10.0 mi NW 17.3 mph 26.5 mph N/A   Clear
2:15 PM 66.2 °F - 17.6 °F 15% 29.95 in 10.0 mi NNW 16.1 mph 25.3 mph N/A   Clear
2:35 PM 66.2 °F - 15.8 °F 14% 29.94 in 10.0 mi NNW 19.6 mph 26.5 mph N/A   Clear
2:55 PM 66.2 °F - 15.8 °F 14% 29.94 in 8.0 mi NNW 16.1 mph 24.2 mph N/A   Clear
3:15 PM 66.2 °F - 15.8 °F 14% 29.93 in 9.0 mi NNW 20.7 mph 27.6 mph N/A   Clear
3:35 PM 66.2 °F - 15.8 °F 14% 29.93 in 10.0 mi NNW 19.6 mph 27.6 mph N/A   Clear
3:55 PM 66.2 °F - 14.0 °F 13% 29.93 in 10.0 mi North 17.3 mph 26.5 mph N/A   Clear
4:15 PM 66.2 °F - 14.0 °F 13% 29.93 in 10.0 mi NNW 15.0 mph 26.5 mph N/A   Clear
4:35 PM 66.2 °F - 14.0 °F 13% 29.93 in 10.0 mi NNW 19.6 mph 29.9 mph N/A   Clear
4:55 PM 66.2 °F - 12.2 °F 12% 29.92 in 10.0 mi NNW 20.7 mph 27.6 mph N/A   Clear
5:15 PM 64.4 °F - 12.2 °F 13% 29.92 in 10.0 mi North 13.8 mph 23.0 mph N/A   Clear
5:35 PM 64.4 °F - 10.4 °F 12% 29.92 in 10.0 mi NNW 13.8 mph 21.9 mph N/A   Clear
5:50 PM 64.4 °F - 10.4 °F 12% 29.93 in 10.0 mi NNW 11.5 mph 24.2 mph N/A   Clear
6:15 PM 62.6 °F - 8.6 °F 12% 29.92 in 10.0 mi NNW 12.7 mph 26.5 mph N/A   Clear
6:35 PM 60.8 °F - 6.8 °F 12% 29.92 in 10.0 mi NNW 16.1 mph 24.2 mph N/A   Clear
7:15 PM 59.0 °F - 6.8 °F 13% 29.93 in 10.0 mi NNW 11.5 mph 19.6 mph N/A   Clear
7:35 PM 59.0 °F - 5.0 °F 12% 29.94 in 10.0 mi NNW 12.7 mph 19.6 mph N/A   Clear
7:55 PM 59.0 °F - 5.0 °F 12% 29.94 in 10.0 mi NNW 15.0 mph 19.6 mph N/A   Clear
8:35 PM 59.0 °F - 3.2 °F 11% 29.94 in 10.0 mi NNW 16.1 mph 24.2 mph N/A   Clear
8:55 PM 57.2 °F - 3.2 °F 11% 29.95 in 10.0 mi North 17.3 mph 28.8 mph N/A   Clear
9:15 PM 57.2 °F - 5.0 °F 12% 29.95 in 10.0 mi NNW 12.7 mph 24.2 mph N/A   Clear
9:35 PM 57.2 °F - 5.0 °F 12% 29.97 in 10.0 mi NNW 13.8 mph 20.7 mph N/A   Clear
9:55 PM 57.2 °F - 5.0 °F 12% 29.97 in 10.0 mi NNW 15.0 mph 20.7 mph N/A   Clear
10:15 PM 55.4 °F - 1.4 °F 11% 29.98 in 10.0 mi NNW 12.7 mph 19.6 mph N/A   Clear
10:35 PM 55.4 °F - 1.4 °F 11% 29.99 in 10.0 mi NNW 13.8 mph 23.0 mph N/A   Clear
10:55 PM 55.4 °F - 1.4 °F 11% 29.99 in 10.0 mi NW 12.7 mph 19.6 mph N/A   Clear
11:15 PM 55.4 °F - 1.4 °F 11% 30.00 in 10.0 mi NNW 16.1 mph - N/A   Clear
11:35 PM 55.4 °F - 1.4 °F 11% 30.00 in 10.0 mi NNW 15.0 mph 20.7 mph N/A   Clear
11:55 PM 55.4 °F - 1.4 °F 11% 30.01 in 10.0 mi North 17.3 mph 25.3 mph N/A   Clear